カタログに戻る

FENGYUN 1C DEB

運用中PO
NORAD 30047·DEBRIS·🇨🇳 China

打ち上げ May 10, 1999 から Taiyuan Satellite Launch Center

Loading…

次のパス (今後24時間)

TLE

最新Source: Space-Track

元期: Sep 14, 2026, 19:09 UTC

1 30047U 99025NY  26257.79793635  .00000615  00000-0  46558-3 0  9993
2 30047  99.9419  80.6072 0124741 309.5934  62.0278 13.94815806997647

AllMySatでFENGYUN 1C DEBをリアルタイム追跡

Download on the App Store